Weather History for KVCB - July, 2012

Change the Weather History Date:

Monday, July 9, 2012

  Actual Average Record
Temperature  
Mean Temperature 76 °F -  
Max Temperature 97 °F 92 °F 111 °F (2008)
Min Temperature 57 °F 55 °F 47 °F (1981)
Cooling Degree Days 12    
Growing Degree Days 26 (Base 50)    
Moisture  
Dew Point 48 °F    
Average Humidity 42    
Maximum Humidity 72    
Minimum Humidity 15    
Precipitation  
Precipitation 0.00 in - - ()
Sea Level Pressure  
Sea Level Pressure 29.93 in    
Wind  
Wind Speed 7 mph (SSW)    
Max Wind Speed 10 mph    
Max Gust Speed -    
Visibility 10 miles    
Events      
Averages and records for this station are not official NWS values.
T = Trace of Precipitation, MM = Missing Value Source: NWS Daily Summary

Daily Weather History Graph

Daily Weather History Graph

Search for Another Location

Airport or City:

Trip Planner

Search our weather history database for the weather conditions in past years. The results will help you decide how hot, cold, wet, or windy it might be!

Date:

Astronomy

Jul. 09, 2012 Rise Set
Actual Time 5:52 AM PDT 8:33 PM PDT
Civil Twilight 5:21 AM PDT 9:04 PM PDT
Nautical Twilight 4:42 AM PDT 9:43 PM PDT
Astronomical Twilight 3:58 AM PDT 10:27 PM PDT
Moon 11:58 PM PDT (7/9) 12:19 PM PDT (7/9)
Length of Visible Light 15h 43m
Length of Day
14h 40m
Waning Gibbous, 63% of the Moon is Illuminated
Jul 9
Waning Gibbous
Jul 10
Last Quarter
Jul 18
New
Jul 26
First Quarter
Aug 1
Full

Hourly Weather History & Observations

Time (PDT) Temp. Heat Index Dew Point Humidity Pressure Visibility Wind Dir Wind Speed Gust Speed Precip Events Conditions
12:53 AM 66.9 °F - 48.9 °F 52% 29.91 in 10.0 mi South 4.6 mph - N/A   Clear
1:53 AM 64.9 °F - 48.9 °F 56% 29.92 in 10.0 mi South 4.6 mph - N/A   Clear
2:53 AM 63.0 °F - 48.0 °F 58% 29.93 in 10.0 mi WSW 4.6 mph - N/A   Clear
3:53 AM 60.1 °F - 48.9 °F 67% 29.93 in 10.0 mi SW 10.4 mph - N/A   Clear
4:53 AM 59.0 °F - 48.9 °F 69% 29.93 in 10.0 mi SW 10.4 mph - N/A   Clear
5:53 AM 57.9 °F - 48.9 °F 72% 29.95 in 10.0 mi WSW 9.2 mph - N/A   Clear
6:53 AM 60.1 °F - 48.9 °F 67% 29.95 in 10.0 mi SW 10.4 mph - N/A   Clear
7:53 AM 64.9 °F - 48.9 °F 56% 29.96 in 10.0 mi SW 9.2 mph - N/A   Clear
8:53 AM 70.0 °F - 48.9 °F 47% 29.98 in 10.0 mi WSW 8.1 mph - N/A   Clear
9:53 AM 75.0 °F - 50.0 °F 41% 29.97 in 10.0 mi SW 6.9 mph - N/A   Clear
11:53 AM 82.9 °F - 51.1 °F 33% 29.98 in 10.0 mi Variable 4.6 mph - N/A   Clear
12:53 PM 88.0 °F 85.7 °F 53.1 °F 30% 29.96 in 10.0 mi SSE 5.8 mph - N/A   Clear
1:53 PM 91.9 °F - 51.1 °F 25% 29.95 in 10.0 mi South 9.2 mph - N/A   Clear
2:53 PM 96.1 °F - 46.0 °F 18% 29.94 in 10.0 mi SW 8.1 mph - N/A   Clear
3:53 PM 96.1 °F - 42.1 °F 15% 29.92 in 10.0 mi SSW 8.1 mph - N/A   Clear
4:53 PM 96.1 °F - 43.0 °F 16% 29.91 in 10.0 mi SSW 8.1 mph - N/A   Clear
5:53 PM 93.0 °F - 41.0 °F 16% 29.89 in 10.0 mi SSE 9.2 mph - N/A   Clear
6:53 PM 87.1 °F - 52.0 °F 30% 29.89 in 10.0 mi South 9.2 mph - N/A   Clear
7:53 PM 84.0 °F - 50.0 °F 31% 29.89 in 10.0 mi South 5.8 mph - N/A   Clear
8:53 PM 78.1 °F - 48.0 °F 35% 29.88 in 10.0 mi SW 6.9 mph - N/A   Clear
9:53 PM 73.9 °F - 48.9 °F 41% 29.89 in 10.0 mi SW 6.9 mph - N/A   Clear
10:53 PM 72.0 °F - 45.0 °F 38% 29.89 in 10.0 mi SW 5.8 mph - N/A   Clear
11:53 PM 69.1 °F - 46.0 °F 44% 29.88 in 10.0 mi SW 4.6 mph - N/A   Clear